TimeCST,TemperatureF,Dew PointF,Humidity,Sea Level PressureIn,VisibilityMPH,Wind Direction,Wind SpeedMPH,Gust SpeedMPH,PrecipitationIn,Events,Conditions,WindDirDegrees,DateUTC
12:52 AM,30.9,26.1,82,29.86,10.0,ESE,6.9,-,N/A,,Clear,120,2014-01-12 06:52:00
1:52 AM,30.9,25.0,79,29.83,10.0,SE,5.8,-,N/A,,Clear,130,2014-01-12 07:52:00
2:52 AM,34.0,27.0,75,29.81,10.0,ESE,5.8,-,N/A,,Clear,120,2014-01-12 08:52:00
3:52 AM,39.9,28.0,63,29.77,10.0,South,17.3,23.0,N/A,,Clear,170,2014-01-12 09:52:00
4:52 AM,37.0,28.0,70,29.76,10.0,SSE,8.1,-,N/A,,Clear,150,2014-01-12 10:52:00
5:52 AM,41.0,28.0,60,29.72,10.0,SSE,11.5,-,N/A,,Clear,160,2014-01-12 11:52:00
6:52 AM,42.1,27.0,55,29.69,10.0,SSE,12.7,-,N/A,,Clear,160,2014-01-12 12:52:00
7:52 AM,45.0,26.1,48,29.68,10.0,South,16.1,25.3,N/A,,Clear,180,2014-01-12 13:52:00
8:52 AM,46.0,27.0,47,29.67,10.0,SSE,10.4,-,N/A,,Clear,160,2014-01-12 14:52:00
9:52 AM,51.1,28.9,43,29.67,10.0,South,12.7,21.9,N/A,,Clear,190,2014-01-12 15:52:00
10:52 AM,55.0,30.0,38,29.62,10.0,South,10.4,-,N/A,,Clear,180,2014-01-12 16:52:00
11:52 AM,57.9,30.0,35,29.57,10.0,SSW,20.7,27.6,N/A,,Clear,200,2014-01-12 17:52:00
12:52 PM,60.1,30.0,32,29.53,10.0,SW,13.8,32.2,N/A,,Clear,220,2014-01-12 18:52:00
1:52 PM,63.0,32.0,31,29.50,10.0,SSW,15.0,27.6,N/A,,Clear,200,2014-01-12 19:52:00
2:52 PM,66.0,32.0,28,29.48,10.0,SW,10.4,20.7,N/A,,Clear,220,2014-01-12 20:52:00
3:52 PM,66.0,30.9,27,29.48,10.0,SW,15.0,23.0,N/A,,Clear,230,2014-01-12 21:52:00
4:52 PM,59.0,30.9,35,29.52,10.0,West,5.8,-,N/A,,Clear,260,2014-01-12 22:52:00
5:52 PM,50.0,30.9,48,29.55,10.0,NW,4.6,-,N/A,,Clear,310,2014-01-12 23:52:00
6:52 PM,45.0,30.0,56,29.56,10.0,North,5.8,-,N/A,,Clear,350,2014-01-13 00:52:00
7:52 PM,43.0,30.0,60,29.59,10.0,NW,5.8,-,N/A,,Clear,310,2014-01-13 01:52:00
8:52 PM,37.9,28.9,70,29.60,10.0,WNW,3.5,-,N/A,,Clear,290,2014-01-13 02:52:00
9:52 PM,30.9,25.0,79,29.64,10.0,NW,9.2,-,N/A,,Clear,320,2014-01-13 03:52:00
10:52 PM,36.0,28.9,76,29.67,10.0,NW,10.4,-,N/A,,Clear,310,2014-01-13 04:52:00
11:52 PM,37.0,30.0,76,29.70,10.0,WNW,9.2,-,N/A,,Mostly Cloudy,300,2014-01-13 05:52:00